Back to catalog

THORAD AGENA D DEB

AlivePO
NORAD 4929·DEBRIS·🇺🇸 United States

Launched Apr 8, 1970 from Vandenberg Space Force Base

Loading…

Next Passes (next 24 hours)

TLE

FreshSource: Space-Track

Epoch: Sep 13, 2026, 04:16 UTC

1 04929U 70025FV  26256.17839303  .00000239  00000-0  99194-3 0  9992
2 04929  99.6759 233.8729 0447594 246.5893 177.6542 12.65774062595668

Track THORAD AGENA D DEB in real time with AllMySat

Download on the App Store